TimeEST,TemperatureF,Dew PointF,Humidity,Sea Level PressureIn,VisibilityMPH,Wind Direction,Wind SpeedMPH,Gust SpeedMPH,PrecipitationIn,Events,Conditions,WindDirDegrees,DateUTC
12:54 AM,52.0,44.1,74,29.63,10.0,SW,6.9,-,N/A,,Clear,230,2012-12-18 05:54:00
1:54 AM,50.0,42.1,74,29.62,10.0,South,4.6,-,N/A,,Partly Cloudy,170,2012-12-18 06:54:00
2:54 AM,51.1,42.1,71,29.65,10.0,SW,5.8,-,N/A,,Partly Cloudy,230,2012-12-18 07:54:00
3:54 AM,50.0,41.0,71,29.64,10.0,SSW,6.9,-,N/A,,Clear,210,2012-12-18 08:54:00
4:54 AM,48.9,41.0,74,29.64,10.0,SW,6.9,-,N/A,,Mostly Cloudy,230,2012-12-18 09:54:00
5:54 AM,48.0,41.0,77,29.65,10.0,SW,5.8,-,N/A,,Mostly Cloudy,230,2012-12-18 10:54:00
6:54 AM,48.2,42.8,82,29.67,10.0,SSW,4.6,-,N/A,,Mostly Cloudy,210,2012-12-18 11:54:00
7:54 AM,48.9,42.1,77,29.69,10.0,SSW,3.5,-,N/A,,Overcast,210,2012-12-18 12:54:00
8:54 AM,51.1,39.0,63,29.69,10.0,WSW,9.2,-,N/A,,Overcast,240,2012-12-18 13:54:00
9:54 AM,51.1,37.9,61,29.71,10.0,West,10.4,17.3,N/A,,Mostly Cloudy,270,2012-12-18 14:54:00
10:54 AM,52.0,37.0,57,29.73,10.0,West,15.0,27.6,N/A,,Mostly Cloudy,280,2012-12-18 15:54:00
11:54 AM,51.1,35.1,54,29.73,10.0,WNW,18.4,27.6,N/A,,Mostly Cloudy,300,2012-12-18 16:54:00
12:54 PM,52.0,36.0,54,29.73,10.0,West,16.1,23.0,N/A,,Overcast,270,2012-12-18 17:54:00
1:54 PM,50.0,34.0,54,29.75,10.0,WNW,17.3,25.3,N/A,,Mostly Cloudy,300,2012-12-18 18:54:00
2:54 PM,51.1,35.1,54,29.78,10.0,NW,16.1,28.8,N/A,,Overcast,320,2012-12-18 19:54:00
3:54 PM,48.9,30.9,50,29.81,10.0,WNW,16.1,25.3,N/A,,Mostly Cloudy,290,2012-12-18 20:54:00
4:54 PM,46.9,30.0,52,29.83,10.0,WNW,13.8,26.5,N/A,,Mostly Cloudy,290,2012-12-18 21:54:00
5:54 PM,45.0,30.0,56,29.86,10.0,West,9.2,-,N/A,,Mostly Cloudy,260,2012-12-18 22:54:00
6:54 PM,43.0,28.9,58,29.88,10.0,West,6.9,-,N/A,,Partly Cloudy,270,2012-12-18 23:54:00
7:54 PM,42.1,28.0,58,29.90,10.0,West,6.9,-,N/A,,Clear,270,2012-12-19 00:54:00
8:54 PM,42.1,28.0,58,29.90,10.0,WSW,3.5,-,N/A,,Clear,250,2012-12-19 01:54:00
9:54 PM,42.1,30.0,62,29.87,10.0,West,17.3,25.3,N/A,,Clear,270,2012-12-19 02:54:00
10:54 PM,42.1,30.0,62,29.88,10.0,West,9.2,-,N/A,,Clear,280,2012-12-19 03:54:00
11:54 PM,43.0,30.0,60,29.87,10.0,West,16.1,20.7,N/A,,Clear,280,2012-12-19 04:54:00